Weather History for Bolton Field, OH

Change the Weather History Date:

Monday, February 4, 2013

  Actual Average Record
Temperature  
Mean Temperature 19 °F -  
Max Temperature 29 °F 38 °F 57 °F (2008)
Min Temperature 10 °F 24 °F 3 °F (2007)
Degree Days  
Heating Degree Days 46    
Moisture  
Dew Point 18 °F    
Average Humidity 89    
Maximum Humidity 100    
Minimum Humidity 69    
Precipitation  
Precipitation 0.00 in - - ()
Sea Level Pressure  
Sea Level Pressure 29.96 in    
Wind  
Wind Speed 6 mph (South)    
Max Wind Speed 13 mph    
Max Gust Speed -    
Visibility 6 miles    
Events Snow    
Averages and records for this station are not official NWS values.
T = Trace of Precipitation, MM = Missing Value Source: NWS Daily Summary

Daily Weather History Graph

Daily Weather History Graph

Search for Another Location

Airport:

Trip Planner

Search our weather history database for the weather conditions in past years. The results will help you decide how hot, cold, wet, or windy it might be!

Date:

Astronomy

Feb. 04, 2013 Rise Set
Actual Time 7:37 AM EST 5:55 PM EST
Civil Twilight 7:09 AM EST 6:24 PM EST
Nautical Twilight 6:37 AM EST 6:56 PM EST
Astronomical Twilight 6:05 AM EST 7:28 PM EST
Moon 2:12 AM EST (2/4) 12:18 PM EST (2/4)
Length of Visible Light 11h 14m
Length of Day
10h 18m
Last Quarter, 37% of the Moon is Illuminated
Feb 4
Last Quarter
Feb 10
New
Feb 17
First Quarter
Feb 25
Full
Mar 4
Last Quarter

Hourly Weather History & Observations

Time (EST) Temp. Windchill Dew Point Humidity Pressure Visibility Wind Dir Wind Speed Gust Speed Precip Events Conditions
12:15 AM 15.6 °F 7.0 °F 10.8 °F 81% 30.09 in 10.0 mi WSW 5.8 mph - N/A   Clear
12:35 AM 16.2 °F 9.0 °F 11.3 °F 81% 30.08 in 10.0 mi WSW 4.6 mph - N/A   Scattered Clouds
12:55 AM 17.2 °F 11.9 °F 12.6 °F 82% 30.09 in 10.0 mi SW 3.5 mph - N/A Snow Light Snow
1:15 AM 16.2 °F 9.0 °F 11.1 °F 81% 30.09 in 10.0 mi SW 4.6 mph - N/A   Mostly Cloudy
1:35 AM 12.7 °F - 9.0 °F 85% 30.08 in 10.0 mi North - - N/A   Scattered Clouds
1:55 AM 11.5 °F 0.9 °F 7.9 °F 85% 30.08 in 10.0 mi SSW 6.9 mph - N/A   Scattered Clouds
2:15 AM 10.8 °F 1.2 °F 7.9 °F 88% 30.08 in 10.0 mi SSW 5.8 mph - N/A   Scattered Clouds
2:35 AM 11.7 °F 2.3 °F 9.0 °F 89% 30.07 in 10.0 mi SW 5.8 mph - N/A   Overcast
2:55 AM 12.7 °F 5.0 °F 10.2 °F 90% 30.08 in 7.0 mi SW 4.6 mph - N/A   Mostly Cloudy
3:15 AM 10.8 °F 1.2 °F 8.2 °F 90% 30.08 in 7.0 mi SSW 5.8 mph - N/A   Scattered Clouds
3:35 AM 13.1 °F 2.8 °F 10.4 °F 89% 30.07 in 7.0 mi SSW 6.9 mph - N/A   Overcast
3:55 AM 12.0 °F 1.5 °F 9.3 °F 89% 30.06 in 7.0 mi SSW 6.9 mph - N/A   Mostly Cloudy
4:15 AM 11.5 °F 0.9 °F 9.1 °F 90% 30.06 in 7.0 mi SW 6.9 mph - N/A   Overcast
6:35 AM 11.8 °F 2.5 °F 9.9 °F 92% 30.05 in 7.0 mi SSW 5.8 mph - N/A   Unknown
6:55 AM 14.7 °F 5.9 °F 12.2 °F 90% 30.05 in 7.0 mi SSW 5.8 mph - N/A   Overcast
7:15 AM 15.8 °F 7.2 °F 13.1 °F 89% 30.04 in 7.0 mi South 5.8 mph - N/A   Overcast
7:20 AM 15.8 °F 7.2 °F 12.2 °F 86% 30.04 in 7.0 mi South 5.8 mph - N/A   Overcast
7:55 AM 17.6 °F 9.3 °F 14.0 °F 86% 30.02 in 7.0 mi South 5.8 mph - N/A   Overcast
8:55 AM 19.4 °F 10.4 °F 15.8 °F 86% 30.00 in 7.0 mi SSE 6.9 mph - N/A   Overcast
9:50 AM 21.2 °F 11.7 °F 17.6 °F 86% 29.98 in 7.0 mi SSE 8.1 mph - N/A   Overcast
10:50 AM 24.8 °F 16.1 °F 17.6 °F 74% 29.96 in 10.0 mi SSE 8.1 mph - N/A   Overcast
11:50 AM 26.6 °F 15.7 °F 17.6 °F 69% 29.96 in 10.0 mi SSE 12.7 mph - N/A   Overcast
12:50 PM 26.6 °F 16.2 °F 17.6 °F 69% 29.91 in 10.0 mi SSE 11.5 mph - N/A   Overcast
1:25 PM 26.6 °F 16.2 °F 17.6 °F 69% 29.90 in 2.0 mi SSE 11.5 mph - N/A Snow Light Snow
1:50 PM 24.8 °F 15.3 °F 21.2 °F 86% 29.88 in 1.0 mi SE 9.2 mph - N/A Snow Light Snow
2:50 PM 24.8 °F 19.1 °F 23.0 °F 93% 29.86 in 1.0 mi SE 4.6 mph - N/A Snow Light Snow
4:03 PM 26.6 °F 20.0 °F 24.8 °F 93% 29.85 in 0.5 mi SSE 5.8 mph - N/A Snow Light Snow
4:50 PM 26.6 °F 20.0 °F 24.8 °F 93% 29.84 in 2.0 mi SE 5.8 mph - N/A Snow Light Snow
5:50 PM 26.6 °F 22.6 °F 24.8 °F 93% 29.84 in 4.0 mi SSE 3.5 mph - N/A Snow Light Snow
6:50 PM 26.6 °F 21.2 °F 26.6 °F 100% 29.84 in 5.0 mi SSE 4.6 mph - N/A   Overcast
8:15 PM 27.5 °F 21.1 °F 27.0 °F 98% 29.83 in 5.0 mi South 5.8 mph - N/A   Overcast
8:35 PM 28.0 °F 21.7 °F 27.5 °F 98% 29.83 in 4.0 mi South 5.8 mph - N/A   Overcast
8:55 PM 28.2 °F - 27.5 °F 97% 29.85 in 5.0 mi North - - N/A   Overcast
9:15 PM 28.2 °F - 27.5 °F 97% 29.86 in 5.0 mi North - - N/A   Overcast
9:35 PM 28.4 °F - 27.5 °F 96% 29.86 in 5.0 mi North - - N/A   Overcast
9:55 PM 28.4 °F - 27.9 °F 98% 29.86 in 4.0 mi North - - N/A   Overcast
10:15 PM 28.8 °F - 28.0 °F 97% 29.86 in 5.0 mi North - - N/A   Overcast
10:35 PM 28.8 °F - 28.0 °F 97% 29.86 in 5.0 mi North - - N/A   Overcast
10:55 PM 28.9 °F - 28.2 °F 97% 29.86 in 4.0 mi North - - N/A   Overcast
11:15 PM 28.9 °F - 28.4 °F 98% 29.85 in 4.0 mi North - - N/A   Overcast
11:35 PM 28.9 °F - 28.4 °F 98% 29.85 in 4.0 mi North - - N/A   Overcast
11:55 PM 29.1 °F - 28.4 °F 97% 29.85 in 3.0 mi Calm Calm - N/A   Overcast